Theta_e
319 319 319 319 319 320 319 318 318 317 317 317 316 317 317 318 318 318 318 318 318 317 317 317 318 318 319 320 320 320 319 318 318 318 317 316 315 314 313 312 311 309
317 317 316 316 316 315 315 315 314 314 314 314 315 315 316 316 316 316 315 316 316 316 316 316 316 316 316 316 317 316 316 316 316 318 316 315 315 315 314 313 312 311
313 313 313 313 313 314 313 313 313 313 312 313 313 313 313 313 313 313 313 313 313 314 314 315 315 315 314 314 315 315 314 314 314 315 315 314 314 313 313 313 313 312
311 311 311 311 311 311 311 311 311 311 312 311 312 312 311 312 311 311 311 309 311 311 312 312 313 313 313 313 312 312 312 312 312 312 312 312 312 312 312 312 312 311
309 309 309 309 309 309 310 310 310 310 310 310 310 310 310 310 310 310 310 310 310 309 310 310 311 311 311 311 310 309 310 310 310 310 309 309 310 310 310 310 309 308
308 308 308 308 308 308 308 308 308 307 307 308 307 307 308 308 308 308 308 307 308 308 308 308 308 309 309 309 309 308 307 307 308 309 308 307 308 309 309 309 308 306
305 305 305 306 306 306 305 305 305 305 305 304 305 306 305 305 305 305 306 306 306 306 306 306 306 306 307 307 306 306 305 305 305 305 305 305 306 306 306 306 306 305
303 303 303 304 304 303 303 303 303 302 302 303 303 304 304 303 303 304 304 304 303 303 304 304 304 304 305 305 304 304 304 304 304 303 303 303 304 303 303 304 303 302
302 301 302 302 301 301 301 300 301 301 301 301 301 302 302 302 302 302 302 302 302 302 302 302 302 301 301 301 301 301 301 301 302 302 301 301 300 300 301 301 300 300
301 301 301 300 300 300 299 299 299 300 299 300 300 300 300 301 301 301 300 300 300 301 301 300 300 300 299 299 299 299 299 299 299 299 299 299 299 299 299 299 298 298
300 300 299 299 299 299 298 299 298 298 299 299 299 299 299 299 300 300 300 300 300 299 300 299 299 299 299 299 298 298 298 298 298 297 297 297 298 298 295 297 296 296
298 298 297 297 297 298 298 298 298 298 298 298 297 297 298 299 298 298 298 298 298 299 299 299 299 299 298 298 298 298 298 298 297 297 297 297 297 296 296 296 296 296
296 296 296 296 296 296 296 296 296 296 296 296 296 296 296 296 297 297 297 297 297 298 298 298 298 298 299 299 299 299 298 297 297 296 296 296 296 295 296 296 295 295
295 295 295 295 295 295 295 295 295 295 295 295 295 295 295 295 295 295 296 296 297 297 297 298 297 297 298 298 298 298 298 297 297 296 296 296 296 296 296 295 295 295
295 295 294 295 294 294 293 293 293 293 293 293 293 294 294 294 294 294 294 294 295 295 296 297 297 298 298 298 296 295 296 295 295 295 295 294 294 295 295 295 295 296
293 293 293 293 292 292 292 292 292 292 292 292 292 292 292 293 293 293 293 294 293 294 294 296 297 298 294 292 292 293 293 294 294 294 294 294 293 294 294 295 295 295
292 292 292 291 291 291 290 290 290 290 290 290 290 291 291 292 291 291 292 292 292 293 293 294 295 296 292 293 294 293 293 293 292 293 293 293 293 293 293 293 294 295
291 290 290 290 290 289 289 289 289 288 289 289 289 289 289 290 290 290 291 291 292 292 292 292 292 291 293 293 293 293 292 291 292 292 292 292 293 293 293 293 293 294
290 289 289 289 288 288 288 287 287 287 287 287 287 288 289 289 289 289 289 290 290 290 290 290 291 291 292 292 292 292 292 291 291 291 291 291 292 292 292 293 293 293
289 288 288 288 288 288 287 286 286 286 287 286 287 288 288 287 287 288 288 289 289 289 289 289 289 290 291 291 291 291 292 291 291 291 291 291 291 291 292 292 292 292
288 288 287 287 287 286 286 286 286 286 286 286 287 287 286 286 287 287 287 287 287 287 287 287 289 290 290 291 291 291 291 291 290 290 290 290 291 291 292 291 291 292
287 286 286 286 285 285 285 285 285 285 285 286 286 286 286 287 287 287 286 286 286 286 286 286 287 289 290 290 290 290 291 289 289 289 288 289 289 289 290 291 291 291
286 285 284 284 284 284 284 284 284 284 285 286 285 285 286 286 286 286 286 286 286 286 286 286 286 288 289 289 289 290 289 287 287 287 287 287 287 288 289 289 290 290
285 284 283 283 283 283 283 283 284 284 285 286 285 284 284 285 285 286 286 286 286 285 285 285 285 286 287 288 289 289 288 287 286 286 286 286 286 287 288 288 289 288
284 283 282 282 282 282 282 282 283 283 284 285 284 284 284 285 285 285 285 285 285 285 285 285 285 285 287 288 289 289 288 286 287 286 286 286 286 286 287 287 288 288
282 281 280 281 280 281 281 282 282 283 282 282 282 283 284 284 284 284 283 283 284 284 285 285 285 285 286 288 288 289 289 287 286 286 285 285 285 286 285 286 287 287
Wind_Speed
5 4 4 4 4 3 2 2 2 2 3 3 3 4 3 4 5 5 6 5 6 6 5 6 7 7 5 6 6 6 6 6 6 5 7 8 8 9 10 10 10 10
3 2 2 1 1 1 1 1 1 2 3 3 3 3 4 4 5 5 6 6 6 7 6 7 7 7 7 7 6 6 7 7 7 4 5 7 8 8 10 11 11 10
2 2 1 1 1 1 1 1 1 1 1 2 2 3 3 3 4 4 5 5 6 6 7 7 7 7 7 7 7 6 6 7 7 6 6 7 7 7 7 7 8 10
4 3 3 2 1 1 1 1 0 1 1 1 0 1 2 2 3 3 4 5 5 6 6 6 7 7 6 6 6 6 7 7 6 6 6 6 6 7 8 7 8 8
4 3 3 2 2 2 1 2 2 2 1 1 1 1 1 2 3 3 3 4 4 5 5 6 6 6 6 6 5 6 7 7 6 5 6 7 6 6 6 6 7 8
5 4 4 3 3 2 2 2 3 3 3 3 3 2 2 2 2 3 4 4 4 5 5 5 6 6 5 5 6 6 5 7 8 7 7 7 7 7 7 7 8 9
5 5 5 4 4 4 3 4 4 4 4 4 3 3 3 3 3 3 4 4 4 5 5 5 6 6 5 5 5 5 7 7 7 8 9 8 7 9 7 8 9 10
6 5 5 5 5 5 5 5 5 5 4 4 4 4 3 3 3 3 3 4 4 4 5 5 6 6 6 6 6 6 7 5 6 7 8 9 8 9 8 7 7 9
6 6 6 6 6 5 6 6 6 5 5 5 5 5 4 4 4 4 4 4 4 4 5 5 5 5 6 6 7 8 8 8 7 8 8 8 8 9 8 8 9 9
7 6 6 6 6 6 6 6 5 4 4 5 5 4 5 5 4 5 4 4 4 4 4 5 5 5 5 6 7 7 8 9 8 8 8 9 9 9 8 8 9 10
7 6 7 7 6 5 5 5 4 4 4 5 5 5 4 4 4 4 4 4 4 5 5 5 5 5 5 6 6 6 7 8 9 8 8 9 10 10 10 9 10 10
7 6 7 6 5 5 5 5 4 4 4 4 4 4 4 4 4 3 3 4 4 5 5 5 5 5 5 6 6 6 6 7 7 8 9 9 10 10 9 9 10 11
6 6 5 5 5 5 4 4 4 4 4 4 3 2 3 3 3 3 2 3 4 4 4 5 5 4 5 6 6 6 7 6 7 7 8 8 9 9 9 10 10 10
5 4 4 4 4 4 4 4 4 4 4 3 3 4 3 3 4 4 3 3 3 3 4 4 4 4 5 5 6 6 6 6 7 7 8 8 9 9 9 10 11 11
4 3 3 4 4 4 4 4 4 3 3 3 3 3 3 3 3 4 4 4 3 3 4 4 4 4 3 4 6 7 7 8 8 8 9 10 10 10 9 10 10 10
4 4 4 3 4 4 5 5 4 4 5 4 4 4 4 4 4 4 4 4 5 5 5 4 5 4 6 9 9 7 8 7 8 9 9 9 10 11 11 10 11 11
4 4 4 5 5 5 5 6 6 6 6 5 5 5 5 5 5 5 5 5 6 6 7 6 6 6 11 11 12 13 9 9 9 9 9 10 10 11 12 12 11 11
5 5 5 5 5 6 5 6 5 4 5 6 6 5 6 6 6 6 6 6 6 6 7 6 7 10 13 13 13 14 13 10 9 9 9 10 10 11 12 12 13 13
4 4 4 4 5 5 4 3 3 4 4 4 5 6 6 6 7 7 7 7 7 8 8 8 8 11 13 15 15 16 16 14 10 10 11 12 12 12 13 13 13 13
3 3 4 4 4 5 4 3 3 4 4 4 4 5 5 5 5 8 7 7 7 8 9 9 9 11 14 16 16 16 17 14 11 12 12 13 14 14 13 14 14 14
4 4 4 4 5 3 3 4 4 4 5 4 4 4 5 6 7 7 6 6 8 8 9 10 9 12 15 17 16 17 17 15 11 11 12 13 13 13 14 15 16 14
4 4 5 4 5 4 5 5 5 6 7 6 4 4 5 5 5 5 7 9 8 7 8 11 11 12 14 16 17 16 18 11 10 11 12 13 14 15 15 15 15 15
5 5 6 4 5 5 5 5 6 7 6 4 5 6 6 6 7 7 7 7 9 8 9 11 12 12 13 16 18 19 14 9 10 10 11 14 15 15 15 15 15 14
4 4 4 4 4 4 5 5 6 5 4 4 5 7 7 7 7 8 7 6 8 10 10 11 13 16 16 15 17 18 14 10 10 12 13 14 15 16 15 14 15 21
4 3 3 3 4 4 4 5 5 4 4 5 5 6 8 7 7 9 11 10 8 9 14 14 13 16 19 17 17 17 14 9 10 11 14 15 14 16 16 14 15 14
2 2 2 3 4 4 5 4 4 4 5 7 7 5 7 8 9 9 12 13 12 10 11 11 13 14 17 22 19 19 18 12 9 11 14 16 15 15 16 16 16 15
Wind_Direction
187 186 192 193 205 209 222 238 265 276 279 284 284 294 297 309 322 305 293 280 272 278 287 289 288 285 281 272 268 268 264 256 254 243 232 229 234 234 239 238 232 233
170 182 182 203 211 188 212 250 273 283 286 279 287 303 310 320 318 313 299 293 292 281 274 275 277 282 285 283 283 279 276 272 267 243 241 238 243 241 242 241 239 236
102 105 86 31 0 37 358 331 274 274 267 309 316 299 308 329 313 310 307 307 299 297 293 284 277 274 279 281 282 279 275 274 276 286 281 272 268 257 252 248 246 241
74 59 57 49 21 7 342 301 266 218 207 229 312 344 313 299 301 291 293 290 285 288 292 293 291 291 282 278 283 282 280 280 284 287 279 271 262 262 262 259 257 254
74 77 68 54 46 18 359 349 351 349 352 341 296 328 329 337 325 321 311 305 301 296 294 294 294 289 287 283 281 279 279 279 275 268 266 266 265 264 263 260 261 261
76 76 69 65 49 38 42 36 21 3 356 350 3 353 14 353 334 329 319 315 314 308 304 302 298 295 293 291 289 285 290 286 284 283 276 269 269 262 266 263 264 264
78 69 65 60 63 50 54 44 38 24 16 354 339 15 15 8 356 348 337 332 325 318 316 313 310 305 304 302 293 285 284 284 291 292 286 281 277 273 262 263 264 265
69 68 62 59 58 50 44 41 33 30 9 352 1 11 13 7 12 2 349 338 328 319 314 312 308 309 309 305 297 294 289 284 281 279 279 277 278 277 272 268 267 266
66 55 50 54 54 46 39 33 29 25 12 3 2 1 1 14 5 1 348 340 326 321 320 316 318 316 314 308 303 298 294 293 291 290 286 285 281 275 275 274 269 265
66 65 57 54 57 47 36 31 22 20 13 10 1 358 359 1 0 357 349 335 329 321 318 315 313 310 306 302 297 294 292 291 291 288 284 282 280 280 279 274 269 272
62 56 53 48 47 43 33 29 18 18 12 10 0 0 354 353 352 351 339 333 326 319 311 307 299 294 292 290 288 286 285 284 284 283 280 279 277 278 277 273 271 266
53 49 48 46 41 39 35 29 23 21 13 9 1 350 349 356 354 338 339 319 317 314 303 296 293 284 273 269 266 267 269 271 269 271 277 276 275 271 269 266 265 266
54 50 45 43 38 33 28 25 25 21 13 7 352 340 356 352 349 340 322 311 301 303 298 295 294 287 286 284 282 280 277 276 270 268 268 272 272 267 266 265 262 263
55 49 49 40 33 31 30 26 20 16 9 354 349 350 356 351 342 335 318 303 294 285 284 288 288 288 283 286 289 293 293 285 281 279 280 276 276 273 269 266 262 261
55 44 42 39 31 33 27 19 14 5 357 343 347 347 339 339 328 324 318 310 303 296 294 288 284 283 282 296 309 302 295 295 291 284 285 286 283 279 274 270 267 261
52 42 37 33 27 26 21 12 7 358 345 347 346 345 331 324 320 313 307 307 310 308 303 298 287 283 283 289 288 288 294 288 286 284 282 279 281 282 277 268 267 266
47 32 25 31 23 19 9 9 1 356 347 344 344 337 329 332 323 319 318 311 306 304 303 301 296 292 296 293 294 292 290 286 283 283 278 276 277 278 280 280 272 266
35 22 24 22 19 11 1 357 339 344 340 338 334 333 330 321 315 311 311 309 304 297 293 293 294 292 294 297 295 293 289 286 285 282 279 275 273 274 276 279 278 277
23 21 20 16 11 357 350 337 335 340 342 340 330 319 309 312 315 309 306 303 297 298 298 295 293 292 294 294 294 291 289 287 282 279 278 277 275 273 273 274 274 275
23 21 19 10 2 356 343 343 341 338 337 322 309 311 311 313 309 305 302 302 303 299 295 292 286 289 288 288 287 285 284 282 277 277 275 275 274 273 273 274 272 274
21 22 14 8 354 345 339 335 339 337 332 328 321 319 319 317 311 312 306 299 298 294 291 289 283 282 285 284 284 284 284 282 276 275 275 275 275 271 269 271 273 273
21 20 7 1 353 349 344 340 338 333 327 321 311 304 299 287 290 285 292 294 289 289 291 290 292 286 283 285 286 285 285 283 276 274 275 276 276 275 271 271 271 272
16 13 3 354 345 342 334 329 325 321 312 299 300 296 289 291 290 288 286 288 293 292 292 292 294 291 287 286 287 286 288 283 282 277 275 276 276 277 274 271 269 268
15 9 355 344 335 324 314 308 304 288 285 300 297 304 301 298 296 295 293 291 292 296 294 295 294 294 289 281 280 281 277 277 278 281 277 277 279 277 277 274 269 267
13 5 350 335 316 302 303 300 292 290 302 307 303 300 298 299 307 308 307 304 296 292 295 294 295 296 295 290 285 283 283 275 274 275 278 278 281 283 282 281 279 273
10 4 335 310 303 304 302 299 306 308 325 325 317 307 310 315 314 310 306 303 304 301 297 295 297 297 298 298 296 294 290 284 277 278 279 281 283 284 287 286 285 283